Hourly Weather Abadan

Today, 31 October, Saturday

Time Temperature Precipitation Wind Pressure Humidity
00:00 +24°C° 0 mm 2 mps 761 mmHg 14%
01:00 +23°C° 0 mm 2 mps 760 mmHg 15%
02:00 +23°C° 0 mm 2 mps 760 mmHg 15%
03:00 +21°C° 0 mm 2 mps 760 mmHg 16%
04:00 +20°C° 0 mm 2 mps 761 mmHg 17%
05:00 +20°C° 0 mm 1 mps 761 mmHg 18%
06:00 +19°C° 0 mm 1 mps 761 mmHg 19%
07:00 +23°C° 0 mm 1 mps 761 mmHg 16%
08:00 +27°C° 0 mm 1 mps 762 mmHg 13%
09:00 +31°C° 0 mm 1 mps 762 mmHg 10%
10:00 +32°C° 0 mm 1 mps 762 mmHg 9%
11:00 +34°C° 0 mm 2 mps 762 mmHg 9%
12:00 +36°C° 0 mm 2 mps 761 mmHg 8%
13:00 +36°C° 0 mm 2 mps 761 mmHg 8%
14:00 +36°C° 0 mm 2 mps 760 mmHg 8%
15:00 +36°C° 0 mm 2 mps 760 mmHg 8%
16:00 +32°C° 0 mm 2 mps 760 mmHg 11%
17:00 +29°C° 0 mm 2 mps 760 mmHg 15%
18:00 +26°C° 0 mm 2 mps 760 mmHg 18%
19:00 +25°C° 0 mm 2 mps 761 mmHg 20%
20:00 +24°C° 0 mm 1 mps 761 mmHg 22%
21:00 +23°C° 0 mm 1 mps 761 mmHg 24%
22:00 +22°C° 0 mm 1 mps 761 mmHg 25%
23:00 +21°C° 0 mm 2 mps 761 mmHg 26%

Tomorrow, 1 November, Sunday

Time Temperature Precipitation Wind Pressure Humidity
00:00 +21°C° 0 mm 2 mps 761 mmHg 27%
01:00 +21°C° 0 mm 1 mps 761 mmHg 34%
02:00 +20°C° 0 mm 1 mps 761 mmHg 40%
03:00 +17°C° 0 mm 0 mps 761 mmHg 46%
04:00 +17°C° 0 mm 0 mps 761 mmHg 50%
05:00 +17°C° 0 mm 0 mps 761 mmHg 53%
06:00 +16°C° 0 mm 0 mps 762 mmHg 57%
07:00 +22°C° 0 mm 1 mps 762 mmHg 45%
08:00 +26°C° 0 mm 1 mps 762 mmHg 33%
09:00 +30°C° 0 mm 2 mps 763 mmHg 21%
10:00 +32°C° 0 mm 2 mps 762 mmHg 18%
11:00 +34°C° 0 mm 2 mps 762 mmHg 16%
12:00 +36°C° 0 mm 2 mps 762 mmHg 13%
13:00 +36°C° 0 mm 2 mps 762 mmHg 13%
14:00 +36°C° 0 mm 2 mps 761 mmHg 12%
15:00 +36°C° 0 mm 2 mps 761 mmHg 11%
16:00 +34°C° 0 mm 2 mps 761 mmHg 16%
17:00 +30°C° 0 mm 3 mps 761 mmHg 21%
18:00 +27°C° 0 mm 3 mps 761 mmHg 25%
19:00 +26°C° 0 mm 3 mps 761 mmHg 26%
20:00 +25°C° 0 mm 2 mps 761 mmHg 28%
21:00 +24°C° 0 mm 2 mps 762 mmHg 29%
22:00 +24°C° 0 mm 2 mps 762 mmHg 33%
23:00 +23°C° 0 mm 2 mps 762 mmHg 37%

Day after tomorrow, 2 November, Monday

Time Temperature Precipitation Wind Pressure Humidity
00:00 +21°C° 0 mm 2 mps 762 mmHg 40%
01:00 +21°C° 0 mm 2 mps 761 mmHg 47%
02:00 +21°C° 0 mm 1 mps 761 mmHg 54%
03:00 +21°C° 0 mm 1 mps 761 mmHg 60%
04:00 +20°C° 0 mm 1 mps 761 mmHg 62%
05:00 +19°C° 0 mm 1 mps 762 mmHg 65%
06:00 +19°C° 0 mm 1 mps 762 mmHg 67%
07:00 +22°C° 0 mm 1 mps 762 mmHg 54%
08:00 +26°C° 0 mm 1 mps 763 mmHg 41%
09:00 +30°C° 0 mm 1 mps 763 mmHg 28%
10:00 +31°C° 0 mm 1 mps 763 mmHg 23%
11:00 +34°C° 0 mm 2 mps 762 mmHg 19%
12:00 +35°C° 0 mm 2 mps 762 mmHg 15%
13:00 +36°C° 0 mm 2 mps 762 mmHg 14%
14:00 +36°C° 0 mm 2 mps 761 mmHg 13%
15:00 +35°C° 0 mm 1 mps 761 mmHg 12%
16:00 +34°C° 0 mm 2 mps 761 mmHg 17%
17:00 +30°C° 0 mm 3 mps 761 mmHg 22%
18:00 +27°C° 0 mm 3 mps 761 mmHg 27%
19:00 +26°C° 0 mm 3 mps 761 mmHg 28%
20:00 +26°C° 0 mm 3 mps 761 mmHg 30%
21:00 +25°C° 0 mm 2 mps 762 mmHg 32%
22:00 +24°C° 0 mm 2 mps 761 mmHg 36%
23:00 +24°C° 0 mm 2 mps 761 mmHg 40%

3 November, Tuesday

Time Temperature Precipitation Wind Pressure Humidity
00:00 +23°C° 0 mm 2 mps 761 mmHg 44%
01:00 +21°C° 0 mm 2 mps 761 mmHg 50%
02:00 +21°C° 0 mm 2 mps 761 mmHg 57%
03:00 +21°C° 0 mm 1 mps 761 mmHg 63%
04:00 +21°C° 0 mm 1 mps 761 mmHg 65%
05:00 +20°C° 0 mm 1 mps 761 mmHg 67%
06:00 +17°C° 0 mm 0 mps 762 mmHg 69%
07:00 +23°C° 0 mm 1 mps 762 mmHg 57%
08:00 +26°C° 0 mm 1 mps 762 mmHg 44%
09:00 +30°C° 0 mm 2 mps 763 mmHg 32%
10:00 +32°C° 0 mm 2 mps 762 mmHg 26%
11:00 +34°C° 0 mm 2 mps 762 mmHg 21%
12:00 +36°C° 0 mm 2 mps 761 mmHg 15%
13:00 +36°C° 0 mm 2 mps 761 mmHg 15%
14:00 +37°C° 0 mm 2 mps 761 mmHg 14%
15:00 +37°C° 0 mm 2 mps 760 mmHg 13%
16:00 +34°C° 0 mm 3 mps 760 mmHg 19%
17:00 +30°C° 0 mm 3 mps 760 mmHg 25%
18:00 +27°C° 0 mm 4 mps 760 mmHg 30%
19:00 +27°C° 0 mm 3 mps 760 mmHg 31%
20:00 +26°C° 0 mm 3 mps 760 mmHg 32%
21:00 +26°C° 0 mm 3 mps 760 mmHg 33%
22:00 +25°C° 0 mm 3 mps 760 mmHg 36%
23:00 +24°C° 0 mm 2 mps 760 mmHg 39%

4 November, Wednesday

Time Temperature Precipitation Wind Pressure Humidity
00:00 +24°C° 0 mm 2 mps 760 mmHg 41%
01:00 +23°C° 0 mm 2 mps 760 mmHg 48%
02:00 +23°C° 0 mm 2 mps 760 mmHg 54%
03:00 +21°C° 0 mm 2 mps 760 mmHg 61%
04:00 +20°C° 0 mm 2 mps 760 mmHg 64%
05:00 +21°C° 0 mm 1 mps 760 mmHg 67%
06:00 +20°C° 0 mm 1 mps 760 mmHg 70%
07:00 +23°C° 0 mm 1 mps 760 mmHg 58%
08:00 +27°C° 0 mm 1 mps 761 mmHg 45%
09:00 +30°C° 0 mm 2 mps 761 mmHg 32%
10:00 +32°C° 0 mm 1 mps 760 mmHg 27%
11:00 +33°C° 0 mm 1 mps 760 mmHg 21%
12:00 +35°C° 0 mm 1 mps 760 mmHg 15%
13:00 +35°C° 0 mm 1 mps 759 mmHg 14%
14:00 +36°C° 0 mm 1 mps 758 mmHg 13%
15:00 +36°C° 0 mm 1 mps 758 mmHg 13%
16:00 +34°C° 0 mm 2 mps 758 mmHg 18%
17:00 +30°C° 0 mm 3 mps 758 mmHg 24%
18:00 +27°C° 0 mm 3 mps 758 mmHg 30%
19:00 +27°C° 0 mm 3 mps 758 mmHg 32%
20:00 +26°C° 0 mm 3 mps 758 mmHg 34%
21:00 +25°C° 0 mm 3 mps 758 mmHg 36%
22:00 +25°C° 0 mm 2 mps 758 mmHg 37%
23:00 +24°C° 0 mm 2 mps 758 mmHg 39%

5 November, Thursday

Time Temperature Precipitation Wind Pressure Humidity
00:00 +24°C° 0 mm 2 mps 758 mmHg 40%
01:00 +23°C° 0 mm 2 mps 757 mmHg 46%
02:00 +23°C° 0 mm 2 mps 757 mmHg 52%
03:00 +21°C° 0 mm 2 mps 757 mmHg 58%
04:00 +21°C° 0 mm 2 mps 757 mmHg 61%
05:00 +20°C° 0 mm 2 mps 758 mmHg 65%
06:00 +20°C° 0 mm 1 mps 758 mmHg 68%
07:00 +23°C° 0 mm 2 mps 758 mmHg 57%
08:00 +26°C° 0 mm 2 mps 758 mmHg 46%
09:00 +29°C° 0 mm 2 mps 758 mmHg 34%
10:00 +31°C° 0 mm 2 mps 758 mmHg 28%
11:00 +34°C° 0 mm 3 mps 758 mmHg 22%
12:00 +36°C° 0 mm 3 mps 757 mmHg 17%
13:00 +36°C° 0 mm 4 mps 757 mmHg 16%
14:00 +36°C° 0 mm 4 mps 756 mmHg 16%
15:00 +36°C° 0 mm 5 mps 756 mmHg 16%
16:00 +33°C° 0 mm 5 mps 756 mmHg 28%
17:00 +29°C° 0 mm 5 mps 756 mmHg 41%
18:00 +26°C° 0 mm 5 mps 756 mmHg 53%
19:00 +25°C° 0 mm 4 mps 756 mmHg 60%
20:00 +23°C° 0 mm 4 mps 756 mmHg 67%
21:00 +23°C° 0 mm 4 mps 756 mmHg 73%
22:00 +23°C° 0 mm 4 mps 756 mmHg 74%
23:00 +23°C° 0 mm 4 mps 756 mmHg 74%
Show more